[[{"header":{"parameterUnit":"m.s-1","parameterCategory":2,"la1":30.2991,"la2":30.254,"lo1":-89.0895,"lo2":-89.0444,"dy":0.0017,"dx":0.0017,"nx":28,"ny":28,"refTime":"2025-11-21T09:00:00:Z","depth":"0","parameterNumber":2,"parameterNumberName":"U-component_of_CURRENTS"},"data":[0,0,0,0,0,0,0,0,0,0,0,0,0,0,0,0,0,0,0,0,0,0,0,0,0,0,0,0,0,0,0,0,0,0,0,0,0,0,0,0,0,0,0,0,0,0,0,0,0,0,0,0,0,0,0,0,0,0,0.1731,0.1732,0,0.1763,0.1763,0.1763,0.1771,0.1771,0.1771,0.1771,0.1754,0.1754,0.1754,0,0,0,0,0,0,0,0,0,0,0,0,0,0.1668,0.1669,0.1731,0.1732,0.1732,0.1763,0.1763,0.1763,0.1771,0.1771,0.1771,0.1771,0.1755,0.1754,0.1754,0,0,0,0,0,0,0,0,0,0,0,0,0,0.1695,0.1669,0.1731,0.1741,0.1742,0.1762,0.1763,0.1763,0.1771,0.1771,0.1771,0.1771,0.1755,0.1754,0.1754,0.1751,0,0,0.1752,0.1752,0,0,0,0,0,0,0,0,0.1694,0.1697,0.1739,0.174,0.1742,0.1764,0.1735,0.1757,0.1771,0.1758,0.1771,0.1771,0.1754,0.1754,0.1758,0.175,0.175,0.1752,0.1751,0.1751,0.1751,0,0,0,0,0,0,0,0.1692,0.1696,0.1742,0.174,0.1741,0.1741,0.1744,0.1739,0.1754,0.1759,0.176,0.1767,0.1755,0.1759,0.1758,0.1749,0.1752,0.1751,0.1751,0.1751,0.1773,0.1773,0,0,0,0,0,0,0.1692,0.1695,0.1741,0.1743,0.1719,0.1742,0.1746,0.1756,0.1755,0.1756,0.1767,0.1767,0.176,0.1758,0.1757,0.1781,0.1751,0.1751,0.175,0.1772,0.1773,0.1774,0,0,0,0,0,0,0.1691,0.1696,0.1739,0.172,0.1726,0.1744,0.1754,0.1756,0.1765,0.1762,0.1761,0.1773,0.176,0.1758,0.1764,0.1779,0.175,0.175,0.1771,0.1772,0.1773,0.181,0,0,0,0,0,0,0.1689,0.1696,0.17,0.1721,0.1727,0.1757,0.1754,0.1757,0.1769,0.177,0.1767,0.1765,0.1759,0.1765,0.1763,0.1777,0.1749,0.1769,0.1771,0.1773,0.1808,0.1813,0.1817,0,0,0,0,0,0.1687,0.1694,0.17,0.1706,0.1734,0.1757,0.1761,0.1771,0.177,0.1777,0.1779,0.1766,0.1775,0.1765,0.1763,0.1777,0.1768,0.1771,0.1773,0.1806,0.1812,0.1817,0,0,0,0,0,0,0.1666,0.1697,0.1703,0.1719,0.1739,0.176,0.1767,0.1774,0.1781,0.178,0.1774,0.1773,0.1786,0.1776,0.1766,0.179,0.1771,0.1773,0.1797,0.1802,0.1807,0.1806,0.1749,0,0,0,0,0,0.1665,0.1679,0.1708,0.1719,0.1731,0.1749,0.1759,0.1768,0.1779,0.1783,0.1782,0.1784,0.1793,0.1793,0.1796,0.1803,0.1831,0.1813,0.1818,0.1822,0.1821,0.1869,0.1878,0.1781,0.1781,0.1781,0,0,0.1657,0.1678,0.1684,0.1716,0.1731,0.1751,0.1754,0.1773,0.1788,0.1778,0.1793,0.1798,0.18,0.1816,0.182,0.1808,0.1875,0.1824,0.1828,0.1825,0.1872,0.1882,0.189,0.1782,0.1782,0.1782,0,0,0.1654,0.1671,0.1685,0.1706,0.1736,0.1751,0.1758,0.1783,0.1793,0.1809,0.1813,0.183,0.1832,0.1845,0.1849,0.1879,0.1899,0.188,0.1898,0.1945,0.1954,0.1961,0.2054,0.2069,0.1879,0.1879,0.1879,0,0.1643,0.1669,0.1691,0.1713,0.173,0.1752,0.1771,0.1788,0.181,0.1823,0.1817,0.1849,0.1848,0.188,0.1892,0.189,0.1934,0.1877,0.1952,0.196,0.1967,0.2059,0.2076,0.1881,0.1881,0.1881,0.1881,0,0.1656,0.1676,0.1687,0.1724,0.1743,0.1764,0.1794,0.1813,0.1825,0.1843,0.1876,0.1885,0.1906,0.1912,0.1909,0.196,0.1985,0.1956,0.1938,0.1979,0.2075,0.2091,0.1884,0.1884,0.1883,0.1882,0,0,0.163,0.1685,0.1688,0.1708,0.1752,0.177,0.18,0.1838,0.1866,0.1883,0.1924,0.1939,0.1951,0.1958,0.1965,0.1998,0.2101,0.1998,0.2,0.2092,0.2249,0.2294,0.2317,0.2085,0.2086,0.2088,0.2312,0,0.1633,0.1673,0.17,0.1733,0.1757,0.1789,0.1818,0.1854,0.1886,0.1931,0.1953,0.199,0.1968,0.1989,0.2021,0.2084,0.2139,0.2046,0.2194,0.2199,0.2234,0.2335,0.2293,0.2491,0.2329,0.2331,0.2333,0,0.1637,0.1667,0.1698,0.1748,0.1761,0.1779,0.1836,0.1867,0.1934,0.1963,0.2004,0.2032,0.2101,0.2064,0.2198,0.2143,0.2198,0.224,0.2249,0.2282,0.2273,0.2414,0.2527,0.2457,0.2359,0.2357,0.2355,0,0.1613,0.1664,0.1687,0.1705,0.1763,0.1778,0.1809,0.187,0.1918,0.1991,0.2054,0.2109,0.219,0.2233,0.2334,0.2272,0.2497,0.2421,0.252,0.2526,0.2515,0.2516,0.2572,0.251,0.2509,0.2509,0.2508,0,0.1608,0.1627,0.1675,0.169,0.1719,0.1764,0.1812,0.1851,0.194,0.2011,0.2071,0.2159,0.2236,0.2368,0.2395,0.2553,0.2559,0.2561,0.2589,0.2532,0.2532,0.2486,0.2429,0.2517,0.2515,0.2514,0.2512,0,0.1576,0.1612,0.1638,0.1691,0.1707,0.1725,0.1812,0.1854,0.1952,0.2057,0.2092,0.2256,0.2426,0.2529,0.2666,0.2685,0.2726,0.2826,0.2786,0.2804,0.2772,0.2719,0.272,0.2631,0.2958,0.2961,0.2963,0,0.1562,0.1574,0.1623,0.1639,0.1658,0.1704,0.1739,0.1834,0.1891,0.2109,0.2159,0.2386,0.2516,0.279,0.2875,0.3001,0.2853,0.3027,0.2869,0.2804,0.2766,0.2611,0.252,0.2899,0.29,0.2901,0.2902,0,0.1532,0.1545,0.1569,0.1602,0.1629,0.1677,0.1737,0.179,0.1922,0.2047,0.2226,0.236,0.2664,0.2809,0.3023,0.3062,0.2886,0.3052,0.2982,0.2736,0.2573,0.2489,0.2747,0.2912,0.2911,0.291,0.291,0.2909,0.1497,0.1502,0.1533,0.1563,0.1595,0.1634,0.1655,0.1748,0.1857,0.2023,0.2197,0.2394,0.269,0.2982,0.3017,0.3086,0.2972,0.3002,0.2959,0.2819,0.2666,0.2977,0.3157,0.3158,0.3158,0.3158,0.3159,0,0.1453,0.1472,0.1498,0.1523,0.1535,0.1576,0.164,0.1661,0.1755,0.196,0.212,0.2455,0.2676,0.2873,0.3077,0.3008,0.2825,0.293,0.2676,0.2597,0.2902,0.283,0.295,0.295,0.295,0.295,0.295,0.295,0.143,0.1438,0.1461,0.1462,0.1477,0.1471,0.1493,0.1543,0.1659,0.1867,0.2062,0.2262,0.2644,0.2975,0.3014,0.2932,0.2647,0.2593,0.2505,0.2709,0.2709,0.2709,0.2627,0.2703,0.2703,0.2101,0.2097,0.2094]},{"header":{"parameterUnit":"m.s-1","parameterCategory":2,"la1":30.2991,"la2":30.254,"lo1":-89.0895,"lo2":-89.0444,"dy":0.0017,"dx":0.0017,"nx":28,"ny":28,"refTime":"2025-11-21T09:00:00:Z","depth":"0","parameterNumber":3,"parameterNumberName":"V-component_of_CURRENTS"},"data":[0,0,0,0,0,0,0,0,0,0,0,0,0,0,0,0,0,0,0,0,0,0,0,0,0,0,0,0,0,0,0,0,0,0,0,0,0,0,0,0,0,0,0,0,0,0,0,0,0,0,0,0,0,0,0,0,0,0,0.0012,0.0011,0,-0.0044,-0.0045,-0.0045,-0.0088,-0.0088,-0.0088,-0.0089,-0.0178,-0.018,-0.0182,0,0,0,0,0,0,0,0,0,0,0,0,0,0.0051,0.0051,0.0012,0.0011,0.001,-0.0044,-0.0045,-0.0045,-0.0088,-0.0088,-0.0089,-0.0089,-0.0178,-0.018,-0.0182,0,0,0,0,0,0,0,0,0,0,0,0,0,0.0018,0.0051,0.0012,-0.0017,-0.002,-0.0044,-0.0045,-0.0046,-0.0088,-0.0088,-0.0089,-0.0089,-0.0177,-0.018,-0.0183,-0.0191,0,0,-0.0192,-0.0193,0,0,0,0,0,0,0,0,0.002,0.0017,-0.0012,-0.0015,-0.0018,-0.0059,-0.0064,-0.0096,-0.0087,-0.0062,-0.0089,-0.0089,-0.0141,-0.0147,-0.0156,-0.0195,-0.0199,-0.0192,-0.0194,-0.0196,-0.0196,0,0,0,0,0,0,0,0.0023,0.0019,-0.0011,-0.0013,-0.0017,-0.0037,-0.0042,-0.007,-0.0099,-0.0065,-0.0068,-0.0073,-0.0143,-0.0153,-0.0159,-0.02,-0.0192,-0.0195,-0.0197,-0.0198,-0.0255,-0.0254,0,0,0,0,0,0,0.0032,0.0021,-0.0009,-0.0012,0.0,-0.0037,-0.0043,-0.0046,-0.0098,-0.0106,-0.0072,-0.0075,-0.0148,-0.0155,-0.0162,-0.0173,-0.0196,-0.0198,-0.02,-0.0255,-0.0255,-0.0254,0,0,0,0,0,0,0.0034,0.003,-0.0007,0.0003,-0.0003,-0.0037,-0.004,-0.0047,-0.0058,-0.0103,-0.0112,-0.0077,-0.0148,-0.0158,-0.0184,-0.0177,-0.02,-0.0203,-0.0256,-0.0255,-0.0255,-0.0196,0,0,0,0,0,0,0.0035,0.0031,0.0034,0.0004,-0.0003,-0.0015,-0.004,-0.0047,-0.006,-0.0064,-0.011,-0.0119,-0.015,-0.0179,-0.0187,-0.0182,-0.0205,-0.0256,-0.0255,-0.0255,-0.0199,-0.0194,-0.019,0,0,0,0,0,0.0037,0.0043,0.0034,0.003,0.0001,-0.0014,-0.002,-0.0047,-0.0059,-0.006,-0.0092,-0.0118,-0.0181,-0.0181,-0.0191,-0.0186,-0.0256,-0.0255,-0.0255,-0.0201,-0.0195,-0.019,0,0,0,0,0,0,0.0062,0.0039,0.0028,0.0028,0.0011,-0.0021,-0.0024,-0.0042,-0.0067,-0.0071,-0.0115,-0.0126,-0.0146,-0.0173,-0.0173,-0.02,-0.0222,-0.0223,-0.0178,-0.0173,-0.0168,-0.0171,-0.0208,0,0,0,0,0,0.007,0.0068,0.0043,0.0044,0.0037,0.0008,-0.0001,-0.0018,-0.0044,-0.0056,-0.0088,-0.0122,-0.0149,-0.0166,-0.0194,-0.021,-0.0236,-0.0213,-0.0208,-0.0204,-0.0213,-0.0252,-0.0252,-0.0252,-0.0252,-0.0252,0,0,0.008,0.0068,0.0066,0.0049,0.0033,0.0027,0.0001,-0.0008,-0.0015,-0.0062,-0.0079,-0.0107,-0.015,-0.0167,-0.0178,-0.019,-0.0211,-0.0203,-0.0199,-0.0211,-0.0252,-0.0252,-0.0252,-0.0251,-0.0251,-0.0251,0,0,0.0098,0.0089,0.0092,0.0081,0.0064,0.0046,0.0047,0.0019,0.0006,-0.0011,-0.0047,-0.0072,-0.0111,-0.0142,-0.0163,-0.0152,-0.0186,-0.0155,-0.0138,-0.0175,-0.0176,-0.0177,-0.0179,-0.018,-0.0154,-0.0154,-0.0154,0,0.0111,0.011,0.0092,0.0092,0.0085,0.0058,0.0059,0.0044,0.0012,0.0,-0.0009,-0.0071,-0.0102,-0.0134,-0.0129,-0.0142,-0.0159,-0.0153,-0.017,-0.0171,-0.0173,-0.0176,-0.0178,-0.0151,-0.0151,-0.0151,-0.0152,0,0.0128,0.0128,0.0131,0.0121,0.0113,0.0112,0.0089,0.008,0.0063,0.0042,0.0013,-0.0029,-0.0069,-0.0077,-0.0102,-0.0128,-0.0131,-0.0157,-0.0182,-0.017,-0.0173,-0.0176,-0.0147,-0.0148,-0.0149,-0.0149,0,0,0.0154,0.0145,0.0146,0.0147,0.0129,0.0125,0.0118,0.01,0.0101,0.0064,0.0058,0.0003,-0.0022,-0.0048,-0.008,-0.0113,-0.0126,-0.0137,-0.014,-0.0136,-0.0184,-0.014,-0.0141,-0.0157,-0.0158,-0.0159,-0.0168,0,0.0173,0.0184,0.0169,0.0178,0.0182,0.0157,0.0156,0.0136,0.0122,0.0115,0.0061,0.0047,-0.001,-0.0014,-0.0063,-0.01,-0.0139,-0.012,-0.02,-0.0202,-0.0163,-0.0145,-0.017,-0.0177,-0.0172,-0.0173,-0.0173,0,0.0192,0.0198,0.0212,0.0211,0.021,0.0211,0.0206,0.0204,0.0182,0.0174,0.0134,0.0101,0.0055,0.001,-0.0084,-0.0066,-0.0131,-0.017,-0.0172,-0.0162,-0.0167,-0.0196,-0.0185,-0.0364,-0.0179,-0.0179,-0.0178,0,0.0224,0.0226,0.024,0.0239,0.0235,0.0235,0.0235,0.022,0.0249,0.022,0.026,0.0157,0.0176,0.0044,-0.0025,-0.0063,-0.0107,-0.0171,-0.02,-0.0197,-0.025,-0.0248,-0.0425,-0.0264,-0.0264,-0.0264,-0.0264,0,0.0249,0.0261,0.0257,0.0267,0.0294,0.0273,0.031,0.0296,0.0321,0.0397,0.0302,0.0366,0.0188,0.0152,0.0011,-0.0069,-0.0084,-0.0193,-0.0202,-0.0224,-0.0221,-0.0405,-0.05,-0.0264,-0.0264,-0.0264,-0.0264,0,0.0283,0.0278,0.03,0.0303,0.0312,0.0333,0.0387,0.0428,0.0443,0.0549,0.0559,0.0546,0.0502,0.0335,0.018,0.0042,-0.0182,-0.0121,-0.0107,-0.0115,-0.0342,-0.043,-0.0596,-0.0675,-0.0186,-0.0185,-0.0185,0,0.0302,0.0316,0.034,0.0371,0.0377,0.0417,0.0464,0.0484,0.0563,0.0692,0.0772,0.0768,0.0803,0.06,0.0319,0.0074,-0.0113,-0.0098,-0.0199,-0.0351,-0.0458,-0.053,-0.0591,-0.0238,-0.0238,-0.0238,-0.0238,0,0.0347,0.0353,0.0378,0.0447,0.0497,0.0567,0.0648,0.0739,0.0822,0.0938,0.1112,0.1151,0.0967,0.0736,0.0406,0.0204,-0.0236,-0.0099,-0.029,-0.0537,-0.0598,-0.0677,-0.0208,-0.0236,-0.0236,-0.0236,-0.0236,-0.0236,0.039,0.0424,0.0472,0.0543,0.0609,0.0738,0.0841,0.0964,0.1137,0.1352,0.1366,0.1457,0.1078,0.062,0.0342,-0.0207,-0.021,-0.0399,-0.0495,-0.0554,-0.0639,-0.013,-0.0145,-0.0145,-0.0145,-0.0144,-0.0144,0,0.0466,0.051,0.0575,0.0678,0.0785,0.0801,0.0987,0.1122,0.1368,0.1518,0.166,0.1498,0.1034,0.0525,-0.019,-0.0548,-0.0726,-0.0754,-0.092,-0.0966,-0.0554,-0.0567,-0.0632,-0.0632,-0.0632,-0.0632,-0.0632,-0.0632,0.0513,0.0601,0.0641,0.0831,0.0912,0.1099,0.1228,0.1418,0.1556,0.1759,0.1785,0.1766,0.1357,0.008,-0.0777,-0.0971,-0.1256,-0.1291,-0.1403,-0.1188,-0.1165,-0.1143,-0.118,-0.1374,-0.1375,-0.1806,-0.1811,-0.1814]}],[{"header":{"parameterUnit":"m.s-1","parameterCategory":2,"la1":30.2991,"la2":30.254,"lo1":-89.0895,"lo2":-89.0444,"dy":0.0017,"dx":0.0017,"nx":28,"ny":28,"refTime":"2025-11-21T09:00:00:Z","depth":"2","parameterNumber":2,"parameterNumberName":"U-component_of_CURRENTS"},"data":[0,0,0,0,0,0,0,0,0,0,0,0,0,0,0,0,0,0,0,0,0,0,0,0,0,0,0,0,0,0,0,0,0,0,0,0,0,0,0,0,0,0,0,0,0,0,0,0,0,0,0,0,0,0,0,0,0,0,0.1721,0.1722,0,0.1748,0.1748,0.1749,0.1776,0.1777,0.1777,0.1777,0.1797,0.1797,0.1798,0,0,0,0,0,0,0,0,0,0,0,0,0,0.1665,0.1666,0.1721,0.1722,0.1722,0.1748,0.1748,0.1749,0.1776,0.1777,0.1777,0.1778,0.1797,0.1797,0.1798,0,0,0,0,0,0,0,0,0,0,0,0,0,0.169,0.1666,0.1721,0.1739,0.1741,0.1748,0.1748,0.1749,0.1776,0.1777,0.1777,0.1778,0.1797,0.1797,0.1798,0.1787,0,0,0.1798,0.1798,0,0,0,0,0,0,0,0,0.1689,0.1692,0.1736,0.1738,0.174,0.176,0.1736,0.1761,0.1776,0.1763,0.1777,0.1778,0.1784,0.1785,0.1789,0.1788,0.1789,0.1798,0.1798,0.1799,0.1799,0,0,0,0,0,0,0,0.1687,0.1691,0.1732,0.1736,0.1739,0.1736,0.174,0.1741,0.1769,0.1764,0.1766,0.1769,0.1785,0.1788,0.1789,0.1789,0.1798,0.1799,0.1799,0.1799,0.1838,0.1839,0,0,0,0,0,0,0.1685,0.169,0.1731,0.1733,0.1715,0.1736,0.1741,0.1753,0.1769,0.1773,0.1768,0.177,0.1788,0.1789,0.179,0.1828,0.1799,0.1799,0.1799,0.1837,0.1838,0.1839,0,0,0,0,0,0,0.1684,0.1689,0.173,0.1711,0.1716,0.1737,0.1749,0.1753,0.1774,0.1773,0.1776,0.1788,0.1788,0.179,0.1809,0.1827,0.1799,0.1799,0.1836,0.1837,0.1838,0.1871,0,0,0,0,0,0,0.1682,0.1689,0.1699,0.1712,0.1717,0.1745,0.1749,0.1753,0.1774,0.1777,0.1791,0.1792,0.1789,0.1809,0.181,0.1826,0.1799,0.1835,0.1836,0.1838,0.1869,0.1873,0.1877,0,0,0,0,0,0.168,0.1693,0.17,0.1705,0.1731,0.1745,0.1748,0.1764,0.1775,0.1786,0.1799,0.1793,0.182,0.181,0.181,0.1828,0.1834,0.1836,0.1838,0.1867,0.1872,0.1877,0,0,0,0,0,0,0.1672,0.1697,0.1705,0.1724,0.1738,0.175,0.1761,0.1774,0.1793,0.1797,0.1802,0.1804,0.1825,0.1824,0.1813,0.1845,0.1827,0.1829,0.1849,0.1854,0.1858,0.186,0.18,0,0,0,0,0,0.1675,0.169,0.1711,0.1724,0.1735,0.1752,0.1762,0.1771,0.1786,0.1797,0.1805,0.1817,0.183,0.1841,0.1844,0.1862,0.1879,0.1875,0.1879,0.1883,0.1885,0.1919,0.1927,0.1845,0.1845,0.1845,0,0,0.167,0.1688,0.1695,0.1723,0.1736,0.1752,0.176,0.1777,0.1793,0.1794,0.1819,0.1827,0.1837,0.1857,0.1867,0.1862,0.1921,0.1885,0.1888,0.1889,0.1922,0.193,0.1937,0.1847,0.1847,0.1846,0,0,0.1669,0.1691,0.1706,0.1722,0.1745,0.1756,0.1766,0.1787,0.1803,0.1825,0.1833,0.1855,0.1871,0.1885,0.1895,0.1924,0.1937,0.1928,0.1956,0.1989,0.1996,0.2002,0.2061,0.2072,0.1936,0.1936,0.1936,0,0.1665,0.169,0.171,0.1729,0.1746,0.1762,0.1782,0.1797,0.1819,0.1836,0.1837,0.1878,0.1884,0.1921,0.1936,0.1934,0.1964,0.1936,0.1995,0.2001,0.2007,0.2065,0.2077,0.1938,0.1937,0.1937,0.1937,0,0.1675,0.1698,0.1708,0.1741,0.176,0.1777,0.1803,0.182,0.1842,0.1857,0.1896,0.191,0.1937,0.1947,0.1953,0.2,0.2014,0.1992,0.1982,0.2017,0.2076,0.2088,0.194,0.194,0.1939,0.1939,0,0,0.1655,0.1708,0.1711,0.1733,0.1771,0.1785,0.1816,0.1851,0.188,0.1899,0.1942,0.1968,0.1979,0.1992,0.2004,0.2038,0.2114,0.204,0.2041,0.2098,0.2216,0.2201,0.2212,0.2105,0.2106,0.2107,0.2251,0,0.166,0.1699,0.1726,0.1759,0.1784,0.1812,0.1842,0.1871,0.1904,0.1944,0.197,0.2011,0.1997,0.2025,0.2053,0.2105,0.2143,0.2079,0.2173,0.2176,0.2157,0.2223,0.2054,0.2165,0.2262,0.2264,0.2266,0,0.1664,0.1692,0.1731,0.1782,0.1796,0.1815,0.1871,0.19,0.1954,0.1985,0.2023,0.2048,0.2115,0.2087,0.2189,0.2154,0.2185,0.2216,0.2222,0.22,0.2181,0.214,0.2182,0.2285,0.2283,0.2282,0.2281,0,0.1644,0.1696,0.1729,0.1745,0.1801,0.1823,0.1853,0.1908,0.1952,0.2017,0.2073,0.212,0.2193,0.2217,0.229,0.2248,0.2407,0.2351,0.2364,0.2365,0.2234,0.222,0.2404,0.2404,0.2403,0.2403,0.2403,0,0.1644,0.1666,0.172,0.1735,0.1772,0.1816,0.1866,0.1903,0.198,0.2043,0.2095,0.2169,0.2233,0.2326,0.2334,0.2415,0.2445,0.2391,0.2402,0.2244,0.223,0.2329,0.2319,0.2408,0.2407,0.2406,0.2405,0,0.1614,0.1655,0.1687,0.1743,0.1764,0.1787,0.1871,0.1907,0.1998,0.2089,0.2123,0.2256,0.2378,0.2443,0.2533,0.251,0.2554,0.2564,0.2395,0.2382,0.2477,0.2466,0.2586,0.2587,0.2587,0.2588,0.2588,0,0.1605,0.1618,0.1675,0.1695,0.172,0.177,0.1803,0.1893,0.1943,0.2133,0.2174,0.2349,0.2431,0.2589,0.2592,0.2631,0.2626,0.2483,0.2346,0.2498,0.2496,0.2485,0.2474,0.2204,0.2201,0.2199,0.2197,0,0.1574,0.1592,0.1618,0.1657,0.1691,0.1737,0.1798,0.1843,0.1965,0.2065,0.2208,0.2299,0.2477,0.2461,0.2543,0.2516,0.2455,0.2438,0.2658,0.2177,0.2146,0.2142,0.2142,0.2176,0.2178,0.218,0.2181,0.2182,0.1544,0.1548,0.1581,0.1616,0.1653,0.1691,0.1717,0.1793,0.1877,0.1998,0.2129,0.2214,0.2297,0.2327,0.2292,0.2273,0.2405,0.2279,0.2282,0.2288,0.2211,0.2182,0.2207,0.2209,0.2211,0.2213,0.2214,0,0.1499,0.1517,0.154,0.1576,0.1589,0.1637,0.1702,0.1713,0.1781,0.1889,0.1984,0.1902,0.1939,0.2013,0.1969,0.1988,0.1918,0.1897,0.1785,0.181,0.1831,0.1724,0.1595,0.1592,0.159,0.1588,0,0,0.148,0.1483,0.1494,0.1502,0.1531,0.1544,0.1572,0.1596,0.1653,0.1658,0.1686,0.1837,0.1963,0.174,0.1741,0.1663,0.1704,0.1599,0.2108,0.2002,0.2019,0.2081,0.1951,0,0,0,0,0]},{"header":{"parameterUnit":"m.s-1","parameterCategory":2,"la1":30.2991,"la2":30.254,"lo1":-89.0895,"lo2":-89.0444,"dy":0.0017,"dx":0.0017,"nx":28,"ny":28,"refTime":"2025-11-21T09:00:00:Z","depth":"2","parameterNumber":3,"parameterNumberName":"V-component_of_CURRENTS"},"data":[0,0,0,0,0,0,0,0,0,0,0,0,0,0,0,0,0,0,0,0,0,0,0,0,0,0,0,0,0,0,0,0,0,0,0,0,0,0,0,0,0,0,0,0,0,0,0,0,0,0,0,0,0,0,0,0,0,0,-0.0161,-0.0162,0,-0.0218,-0.0219,-0.022,-0.0257,-0.0257,-0.0257,-0.0258,-0.0343,-0.0345,-0.0347,0,0,0,0,0,0,0,0,0,0,0,0,0,-0.0122,-0.0123,-0.0161,-0.0162,-0.0162,-0.0218,-0.0219,-0.022,-0.0257,-0.0257,-0.0257,-0.0258,-0.0343,-0.0345,-0.0348,0,0,0,0,0,0,0,0,0,0,0,0,0,-0.0156,-0.0123,-0.0161,-0.0187,-0.019,-0.0218,-0.0219,-0.022,-0.0257,-0.0257,-0.0258,-0.0258,-0.0342,-0.0345,-0.0348,-0.0362,0,0,-0.0358,-0.0359,0,0,0,0,0,0,0,0,-0.0154,-0.0157,-0.0183,-0.0185,-0.0189,-0.023,-0.0237,-0.0269,-0.0257,-0.0232,-0.0258,-0.0258,-0.0308,-0.0314,-0.0324,-0.0366,-0.0369,-0.0358,-0.036,-0.0361,-0.0362,0,0,0,0,0,0,0,-0.0151,-0.0155,-0.0184,-0.0183,-0.0187,-0.0209,-0.0214,-0.0243,-0.0268,-0.0234,-0.0237,-0.0242,-0.031,-0.0321,-0.0326,-0.0371,-0.0358,-0.0361,-0.0363,-0.0364,-0.0433,-0.0433,0,0,0,0,0,0,-0.0141,-0.0153,-0.0182,-0.0186,-0.0171,-0.021,-0.0215,-0.0217,-0.0268,-0.0275,-0.0242,-0.0244,-0.0315,-0.0323,-0.033,-0.0344,-0.0361,-0.0364,-0.0366,-0.0433,-0.0433,-0.0433,0,0,0,0,0,0,-0.014,-0.0143,-0.018,-0.017,-0.0177,-0.021,-0.0212,-0.0218,-0.0228,-0.0273,-0.0282,-0.0246,-0.0316,-0.0325,-0.0354,-0.0348,-0.0366,-0.0368,-0.0434,-0.0433,-0.0433,-0.0377,0,0,0,0,0,0,-0.0138,-0.0142,-0.0139,-0.0169,-0.0177,-0.019,-0.0212,-0.0219,-0.0231,-0.0234,-0.0279,-0.0288,-0.0317,-0.0349,-0.0357,-0.0353,-0.0371,-0.0434,-0.0433,-0.0433,-0.0379,-0.0375,-0.0372,0,0,0,0,0,-0.0137,-0.013,-0.0138,-0.0142,-0.0172,-0.019,-0.0196,-0.0221,-0.0231,-0.0232,-0.0265,-0.0286,-0.0355,-0.0352,-0.0361,-0.0358,-0.0434,-0.0434,-0.0433,-0.0381,-0.0376,-0.0372,0,0,0,0,0,0,-0.0111,-0.0134,-0.0144,-0.0144,-0.0163,-0.0196,-0.0199,-0.0216,-0.0242,-0.0245,-0.0288,-0.0298,-0.0322,-0.0348,-0.0344,-0.0378,-0.0397,-0.0399,-0.0354,-0.0349,-0.0346,-0.0333,-0.0373,0,0,0,0,0,-0.0104,-0.0105,-0.0131,-0.0131,-0.0137,-0.0167,-0.0177,-0.0193,-0.0221,-0.0232,-0.0264,-0.0299,-0.0329,-0.0345,-0.0377,-0.0394,-0.0419,-0.0398,-0.0395,-0.0391,-0.0387,-0.0421,-0.042,-0.0433,-0.0433,-0.0433,0,0,-0.0094,-0.0106,-0.0108,-0.0125,-0.0142,-0.0146,-0.0174,-0.0184,-0.0189,-0.0238,-0.0254,-0.0289,-0.0332,-0.0353,-0.0366,-0.0373,-0.04,-0.0391,-0.0388,-0.0386,-0.0421,-0.042,-0.0419,-0.0433,-0.0433,-0.0433,0,0,-0.0074,-0.0085,-0.0079,-0.0091,-0.011,-0.0128,-0.0128,-0.0157,-0.0171,-0.0191,-0.0228,-0.0257,-0.0301,-0.0331,-0.0351,-0.0347,-0.0381,-0.0357,-0.0326,-0.0359,-0.0358,-0.0357,-0.0379,-0.0381,-0.0353,-0.0353,-0.0353,0,-0.0061,-0.0058,-0.008,-0.0078,-0.0083,-0.0116,-0.011,-0.0128,-0.0163,-0.0172,-0.0188,-0.0253,-0.029,-0.0317,-0.0317,-0.0338,-0.0359,-0.0337,-0.0353,-0.0353,-0.0354,-0.0376,-0.0379,-0.035,-0.035,-0.035,-0.0351,0,-0.0039,-0.0036,-0.0032,-0.0039,-0.0047,-0.0047,-0.0073,-0.0082,-0.0102,-0.0124,-0.0153,-0.0205,-0.0242,-0.0259,-0.0288,-0.0309,-0.0323,-0.0345,-0.036,-0.0349,-0.0373,-0.0377,-0.0346,-0.0347,-0.0348,-0.0348,0,0,-0.001,-0.0014,-0.0013,-0.0007,-0.0025,-0.0028,-0.0031,-0.0045,-0.0041,-0.0083,-0.0086,-0.0147,-0.0175,-0.0201,-0.0243,-0.0273,-0.0295,-0.0305,-0.0308,-0.0319,-0.036,-0.0378,-0.0384,-0.032,-0.032,-0.0321,-0.0372,0,0.0015,0.0035,0.0022,0.0039,0.0047,0.0022,0.0024,0.0007,-0.0012,-0.0022,-0.0078,-0.0101,-0.0153,-0.0167,-0.0207,-0.0272,-0.0305,-0.0279,-0.0376,-0.0379,-0.039,-0.0389,-0.0359,-0.0403,-0.0376,-0.0377,-0.0377,0,0.0041,0.0052,0.0076,0.0083,0.0085,0.0089,0.0091,0.0089,0.0064,0.0051,0.0016,-0.0029,-0.008,-0.0124,-0.0229,-0.021,-0.028,-0.0333,-0.0337,-0.0376,-0.0404,-0.0414,-0.0412,-0.0384,-0.0384,-0.0383,-0.0383,0,0.0076,0.0089,0.0112,0.0114,0.0116,0.0124,0.0124,0.0111,0.0128,0.0098,0.0112,0.0029,0.0011,-0.0098,-0.021,-0.0221,-0.0321,-0.0351,-0.0433,-0.0435,-0.044,-0.0442,-0.0427,-0.0427,-0.0427,-0.0427,-0.0427,0,0.0109,0.0126,0.0131,0.0144,0.0178,0.0162,0.0197,0.0188,0.0195,0.0233,0.0154,0.0163,0.0018,-0.0057,-0.0184,-0.0314,-0.0304,-0.0427,-0.0452,-0.042,-0.0418,-0.043,-0.043,-0.0429,-0.0428,-0.0428,-0.0428,0,0.0142,0.0145,0.0174,0.0186,0.0197,0.022,0.0259,0.0288,0.0286,0.0337,0.0336,0.0273,0.0174,0.0024,-0.0139,-0.0258,-0.0398,-0.0448,-0.0395,-0.0413,-0.0497,-0.0493,-0.0548,-0.0549,-0.055,-0.0551,-0.0551,0,0.0161,0.018,0.0213,0.0243,0.0251,0.0288,0.0325,0.0334,0.0377,0.0408,0.0442,0.0369,0.0319,0.007,-0.0148,-0.0367,-0.0395,-0.0483,-0.0509,-0.0492,-0.051,-0.0505,-0.05,-0.049,-0.049,-0.049,-0.049,0,0.0201,0.021,0.0237,0.0299,0.0342,0.0398,0.0451,0.05,0.0532,0.057,0.0602,0.056,0.0345,0.0128,-0.0165,-0.0318,-0.0451,-0.0493,-0.0489,-0.0464,-0.0442,-0.0458,-0.0454,-0.0491,-0.0491,-0.0491,-0.049,-0.049,0.0234,0.0261,0.0301,0.036,0.0421,0.0501,0.0557,0.0618,0.0691,0.075,0.0713,0.0672,0.043,0.0058,-0.0194,-0.0447,-0.0456,-0.0548,-0.0546,-0.0544,-0.0528,-0.0509,-0.0567,-0.0567,-0.0567,-0.0568,-0.0568,0,0.027,0.0305,0.0362,0.0436,0.0509,0.054,0.0643,0.0685,0.0774,0.0828,0.0837,0.0626,0.0383,0.0123,-0.0249,-0.0497,-0.0512,-0.0566,-0.0524,-0.0522,-0.0521,-0.0503,-0.0536,-0.0536,-0.0536,-0.0537,0,0,0.0292,0.0347,0.0372,0.0493,0.0562,0.0672,0.0737,0.0788,0.0838,0.0861,0.0864,0.0798,0.0481,0.0227,-0.0104,-0.0308,-0.036,-0.0355,-0.0359,-0.027,-0.0265,-0.0494,-0.0463,0,0,0,0,0]}],[{"header":{"parameterUnit":"m.s-1","parameterCategory":2,"la1":30.2991,"la2":30.254,"lo1":-89.0895,"lo2":-89.0444,"dy":0.0017,"dx":0.0017,"nx":28,"ny":28,"refTime":"2025-11-21T09:00:00:Z","depth":"4","parameterNumber":2,"parameterNumberName":"U-component_of_CURRENTS"},"data":[0,0,0,0,0,0,0,0,0,0,0,0,0,0,0,0,0,0,0,0,0,0,0,0,0,0,0,0,0,0,0,0,0,0,0,0,0,0,0,0,0,0,0,0,0,0,0,0,0,0,0,0,0,0,0,0,0,0,0.1017,0.1018,0,0.1065,0.1066,0.1066,0.1104,0.1104,0.1105,0.1105,0.1157,0.1158,0.1159,0,0,0,0,0,0,0,0,0,0,0,0,0,0.0956,0.0957,0.1017,0.1018,0.1019,0.1065,0.1066,0.1066,0.1104,0.1104,0.1105,0.1105,0.1156,0.1158,0.1159,0,0,0,0,0,0,0,0,0,0,0,0,0,0.0989,0.0957,0.1017,0.1044,0.1047,0.1065,0.1066,0.1066,0.1103,0.1104,0.1105,0.1106,0.1156,0.1157,0.1159,0.1151,0,0,0.1163,0.1163,0,0,0,0,0,0,0,0,0.0987,0.0991,0.1039,0.1042,0.1046,0.1081,0.1063,0.1096,0.1103,0.108,0.1105,0.1106,0.1132,0.1136,0.114,0.1154,0.1156,0.1163,0.1164,0.1164,0.1165,0,0,0,0,0,0,0,0.0985,0.099,0.1034,0.104,0.1044,0.1054,0.1059,0.1069,0.11,0.1082,0.1086,0.1093,0.1134,0.1139,0.1142,0.1157,0.1163,0.1164,0.1165,0.1165,0.1239,0.124,0,0,0,0,0,0,0.0982,0.0987,0.1033,0.1036,0.102,0.1054,0.106,0.1067,0.11,0.1106,0.1093,0.1095,0.1136,0.114,0.1144,0.121,0.1164,0.1166,0.1166,0.1238,0.1239,0.1241,0,0,0,0,0,0,0.098,0.0985,0.1031,0.1014,0.1021,0.1055,0.1062,0.1068,0.1099,0.1108,0.1114,0.1121,0.1137,0.1142,0.1179,0.1209,0.1166,0.1167,0.1237,0.1238,0.124,0.1295,0,0,0,0,0,0,0.0978,0.0985,0.0999,0.1014,0.1022,0.1059,0.1062,0.1068,0.1102,0.1106,0.1134,0.1138,0.1138,0.1177,0.118,0.121,0.1168,0.1235,0.1237,0.1239,0.1292,0.1299,0.1304,0,0,0,0,0,0.0976,0.0989,0.0999,0.1006,0.1037,0.106,0.1065,0.109,0.1103,0.112,0.1142,0.1138,0.1193,0.1179,0.1182,0.1214,0.1234,0.1237,0.1239,0.1289,0.1297,0.1304,0,0,0,0,0,0,0.0971,0.0995,0.1006,0.1027,0.1051,0.1067,0.1089,0.1103,0.1134,0.1146,0.1153,0.1159,0.1201,0.1199,0.1183,0.1241,0.1213,0.1216,0.125,0.1257,0.1263,0.1261,0.117,0,0,0,0,0,0.0976,0.0995,0.1016,0.1037,0.105,0.1074,0.1091,0.1109,0.1132,0.1148,0.1168,0.1189,0.1209,0.1228,0.124,0.1273,0.1276,0.1295,0.1302,0.1307,0.1307,0.1343,0.1353,0.1249,0.1249,0.1249,0,0,0.0979,0.0997,0.1008,0.1038,0.1059,0.1082,0.1087,0.1121,0.1147,0.1147,0.1196,0.1211,0.1222,0.126,0.1278,0.1267,0.1339,0.131,0.1315,0.1312,0.1347,0.1357,0.1366,0.1251,0.1251,0.125,0,0,0.0989,0.1013,0.1031,0.1053,0.1091,0.1105,0.1121,0.1153,0.1178,0.122,0.1228,0.1262,0.1296,0.131,0.132,0.1367,0.1368,0.1377,0.1413,0.1449,0.1457,0.1465,0.1487,0.1496,0.1384,0.1385,0.1385,0,0.0995,0.1018,0.104,0.1064,0.1087,0.1118,0.1143,0.117,0.1213,0.1239,0.1245,0.1308,0.1317,0.1362,0.138,0.1381,0.14,0.1384,0.1457,0.1465,0.1472,0.1492,0.1502,0.1387,0.1387,0.1387,0.1387,0,0.1011,0.104,0.1055,0.1094,0.1121,0.115,0.1187,0.1224,0.126,0.1287,0.1349,0.1367,0.1405,0.1417,0.1415,0.1473,0.1469,0.1459,0.1438,0.1486,0.1504,0.1513,0.1392,0.1391,0.139,0.1389,0,0,0.0992,0.1053,0.1061,0.1086,0.1141,0.1162,0.1214,0.1265,0.1308,0.1356,0.1411,0.145,0.1472,0.1484,0.1493,0.1524,0.1589,0.152,0.1521,0.1542,0.1671,0.1591,0.1593,0.1601,0.1603,0.1605,0.1665,0,0.0999,0.1043,0.1075,0.1125,0.1149,0.1198,0.1243,0.1297,0.1349,0.141,0.1449,0.1503,0.1495,0.1526,0.1559,0.1582,0.1615,0.1573,0.1621,0.1622,0.1545,0.1601,0.161,0.1672,0.1674,0.1675,0.1677,0,0.0998,0.1031,0.1076,0.1144,0.1161,0.1199,0.128,0.1326,0.1413,0.1458,0.1522,0.1556,0.1617,0.16,0.1672,0.1652,0.1668,0.1679,0.1681,0.1591,0.1558,0.1613,0.1692,0.1691,0.169,0.1689,0.1688,0,0.0963,0.103,0.1068,0.1091,0.117,0.1209,0.1258,0.1344,0.1397,0.1496,0.155,0.1619,0.1668,0.1704,0.1737,0.1717,0.1809,0.1778,0.1719,0.1713,0.1741,0.1732,0.1827,0.1827,0.1827,0.1827,0.1826,0,0.0944,0.0977,0.106,0.108,0.1136,0.12,0.1274,0.1333,0.1432,0.1502,0.1577,0.1637,0.1701,0.1761,0.1771,0.1779,0.1841,0.1733,0.1728,0.1763,0.1756,0.1748,0.1738,0.1829,0.1828,0.1828,0.1828,0,0.0894,0.0948,0.0997,0.1087,0.112,0.1161,0.1276,0.1329,0.1431,0.1526,0.1563,0.1674,0.1747,0.18,0.186,0.1816,0.1831,0.1818,0.1863,0.1859,0.17,0.1692,0.1746,0.1743,0.1741,0.174,0.1739,0,0.0871,0.0892,0.099,0.1025,0.107,0.1147,0.1202,0.1313,0.1372,0.1537,0.1572,0.1689,0.1751,0.177,0.1827,0.1847,0.1826,0.1816,0.1739,0.1704,0.1695,0.169,0.1685,0.1736,0.1735,0.1735,0.1734,0,0.0825,0.0869,0.091,0.0981,0.1043,0.1108,0.1196,0.1229,0.1365,0.147,0.155,0.1601,0.1683,0.1719,0.1755,0.1763,0.1809,0.1795,0.1798,0.1726,0.1692,0.1684,0.1681,0.1728,0.1729,0.1729,0.173,0,0.0795,0.0811,0.0875,0.0932,0.1005,0.1054,0.1106,0.1182,0.1252,0.1422,0.1447,0.1573,0.167,0.1678,0.1715,0.1718,0.168,0.1612,0.1623,0.1631,0.1566,0.1505,0.1489,0,0,0,0,0,0.076,0.0778,0.0825,0.0885,0.0955,0.1003,0.1099,0.1155,0.1279,0.1302,0.1372,0.1444,0.1508,0.1567,0.1546,0.1663,0.1685,0.1632,0.161,0.1692,0.1699,0.1633,0,0,0,0,0,0,0.0738,0.0776,0.0801,0.0839,0.0874,0.0946,0.1004,0.1087,0.1101,0.1228,0.1263,0.1364,0.1436,0.1507,0.1522,0.154,0.1499,0.1708,0.1705,0.1687,0.1694,0.17,0.1635,0,0,0,0,0]},{"header":{"parameterUnit":"m.s-1","parameterCategory":2,"la1":30.2991,"la2":30.254,"lo1":-89.0895,"lo2":-89.0444,"dy":0.0017,"dx":0.0017,"nx":28,"ny":28,"refTime":"2025-11-21T09:00:00:Z","depth":"4","parameterNumber":3,"parameterNumberName":"V-component_of_CURRENTS"},"data":[0,0,0,0,0,0,0,0,0,0,0,0,0,0,0,0,0,0,0,0,0,0,0,0,0,0,0,0,0,0,0,0,0,0,0,0,0,0,0,0,0,0,0,0,0,0,0,0,0,0,0,0,0,0,0,0,0,0,-0.0073,-0.0074,0,-0.0118,-0.0118,-0.0119,-0.0146,-0.0146,-0.0146,-0.0146,-0.0215,-0.0217,-0.0219,0,0,0,0,0,0,0,0,0,0,0,0,0,-0.0047,-0.0047,-0.0073,-0.0074,-0.0074,-0.0118,-0.0118,-0.0119,-0.0146,-0.0146,-0.0146,-0.0146,-0.0215,-0.0217,-0.0219,0,0,0,0,0,0,0,0,0,0,0,0,0,-0.0072,-0.0047,-0.0073,-0.0093,-0.0095,-0.0118,-0.0119,-0.0119,-0.0146,-0.0146,-0.0146,-0.0147,-0.0214,-0.0216,-0.0219,-0.0233,0,0,-0.0227,-0.0228,0,0,0,0,0,0,0,0,-0.007,-0.0073,-0.0089,-0.0091,-0.0094,-0.0126,-0.0134,-0.0158,-0.0146,-0.0127,-0.0146,-0.0147,-0.0187,-0.0192,-0.0201,-0.0236,-0.0239,-0.0227,-0.0229,-0.023,-0.0231,0,0,0,0,0,0,0,-0.0069,-0.0071,-0.0091,-0.009,-0.0092,-0.0111,-0.0115,-0.0139,-0.0157,-0.0129,-0.0131,-0.0135,-0.0189,-0.0198,-0.0202,-0.024,-0.0227,-0.023,-0.0231,-0.0232,-0.031,-0.031,0,0,0,0,0,0,-0.006,-0.0069,-0.009,-0.0093,-0.0082,-0.0111,-0.0115,-0.0116,-0.0156,-0.0162,-0.0135,-0.0136,-0.0193,-0.0199,-0.0205,-0.0228,-0.023,-0.0232,-0.0234,-0.0309,-0.031,-0.0311,0,0,0,0,0,0,-0.0059,-0.0061,-0.0088,-0.0082,-0.0087,-0.0111,-0.0112,-0.0117,-0.0129,-0.016,-0.0167,-0.0142,-0.0194,-0.0201,-0.0231,-0.0231,-0.0234,-0.0236,-0.0309,-0.031,-0.031,-0.0271,0,0,0,0,0,0,-0.0058,-0.0061,-0.006,-0.0081,-0.0087,-0.01,-0.0112,-0.0118,-0.0131,-0.0133,-0.0169,-0.0175,-0.0194,-0.0227,-0.0234,-0.0234,-0.0238,-0.0308,-0.0309,-0.031,-0.0272,-0.0271,-0.027,0,0,0,0,0,-0.0057,-0.0053,-0.006,-0.0062,-0.0084,-0.01,-0.0104,-0.0123,-0.0131,-0.0135,-0.0163,-0.0174,-0.0238,-0.023,-0.0237,-0.0239,-0.0308,-0.0309,-0.031,-0.0273,-0.0271,-0.027,0,0,0,0,0,0,-0.0043,-0.0056,-0.0064,-0.0065,-0.008,-0.0104,-0.0109,-0.0123,-0.0147,-0.0151,-0.0181,-0.0189,-0.0216,-0.0236,-0.0226,-0.0266,-0.0275,-0.0277,-0.0244,-0.0243,-0.0241,-0.0213,-0.024,0,0,0,0,0,-0.0038,-0.0039,-0.0057,-0.0058,-0.0064,-0.0087,-0.0097,-0.0109,-0.0133,-0.0143,-0.0169,-0.0199,-0.0227,-0.0241,-0.0268,-0.0289,-0.0303,-0.0296,-0.0295,-0.0293,-0.0277,-0.0302,-0.0301,-0.0314,-0.0314,-0.0314,0,0,-0.0033,-0.0041,-0.0042,-0.0055,-0.0069,-0.0071,-0.0094,-0.0105,-0.0107,-0.0147,-0.0163,-0.0197,-0.0233,-0.0256,-0.0269,-0.0271,-0.0301,-0.0295,-0.0293,-0.0277,-0.0303,-0.0302,-0.03,-0.0315,-0.0315,-0.0315,0,0,-0.0019,-0.003,-0.0023,-0.0033,-0.0049,-0.0062,-0.0064,-0.0089,-0.0101,-0.0123,-0.0153,-0.0183,-0.0225,-0.0247,-0.0264,-0.0273,-0.0295,-0.0289,-0.0256,-0.0281,-0.0279,-0.0278,-0.0303,-0.0304,-0.0285,-0.0285,-0.0285,0,-0.0012,-0.0004,-0.0025,-0.0021,-0.0022,-0.0054,-0.0045,-0.0064,-0.0096,-0.0102,-0.0122,-0.0182,-0.0216,-0.0236,-0.0242,-0.0267,-0.0286,-0.0256,-0.0277,-0.0276,-0.0275,-0.0301,-0.0303,-0.0283,-0.0284,-0.0284,-0.0284,0,0.0009,0.0015,0.0017,0.0016,0.001,0.001,-0.0012,-0.0023,-0.0045,-0.0064,-0.0093,-0.0143,-0.0174,-0.0198,-0.0223,-0.0238,-0.0255,-0.0273,-0.0274,-0.0271,-0.0299,-0.0302,-0.0281,-0.0282,-0.0282,-0.0282,0,0,0.0027,0.0033,0.0034,0.0045,0.0032,0.0031,0.0029,0.002,0.0022,-0.0021,-0.0022,-0.008,-0.0109,-0.0131,-0.0172,-0.0196,-0.022,-0.0229,-0.0231,-0.0241,-0.0276,-0.0288,-0.0292,-0.0243,-0.0243,-0.0243,-0.03,0,0.0051,0.0077,0.0071,0.0094,0.0105,0.0085,0.009,0.0075,0.0051,0.0037,-0.0013,-0.004,-0.0084,-0.0104,-0.0133,-0.0202,-0.0224,-0.0203,-0.0287,-0.0289,-0.029,-0.0295,-0.0243,-0.0302,-0.0302,-0.0303,-0.0303,0,0.0075,0.0091,0.0122,0.0143,0.0146,0.0153,0.0158,0.0157,0.0129,0.011,0.0078,0.0033,-0.0013,-0.0052,-0.0145,-0.0131,-0.0192,-0.0243,-0.0247,-0.0268,-0.0306,-0.0306,-0.0308,-0.0308,-0.0307,-0.0307,-0.0307,0,0.0101,0.0127,0.0156,0.0161,0.0176,0.0187,0.0191,0.0177,0.018,0.0152,0.0142,0.0086,0.0042,-0.0028,-0.0146,-0.0143,-0.0251,-0.0263,-0.0326,-0.0328,-0.0316,-0.0317,-0.0313,-0.0313,-0.0313,-0.0313,-0.0312,0,0.0129,0.0151,0.0171,0.0185,0.0221,0.0219,0.0244,0.0239,0.0231,0.0233,0.0178,0.0155,0.0045,-0.0037,-0.0126,-0.0241,-0.0239,-0.0313,-0.0341,-0.0302,-0.03,-0.0319,-0.0319,-0.0315,-0.0314,-0.0314,-0.0313,0,0.0145,0.016,0.0194,0.0221,0.0233,0.0253,0.0277,0.0291,0.0279,0.0278,0.027,0.0196,0.0092,-0.0024,-0.0157,-0.0224,-0.0326,-0.0367,-0.0319,-0.0344,-0.0386,-0.0384,-0.0421,-0.0422,-0.0423,-0.0423,-0.0424,0,0.0155,0.0174,0.0216,0.0237,0.0249,0.0281,0.0303,0.0312,0.0323,0.0298,0.0295,0.0202,0.0138,-0.0047,-0.0174,-0.0332,-0.0359,-0.0406,-0.0384,-0.0373,-0.0396,-0.0392,-0.0389,-0.0425,-0.0425,-0.0425,-0.0425,0,0.0168,0.0181,0.0207,0.0252,0.0282,0.0323,0.0351,0.0365,0.0369,0.0362,0.032,0.0225,0.0103,-0.004,-0.0178,-0.0292,-0.0368,-0.0413,-0.0412,-0.0391,-0.0378,-0.0399,-0.0395,-0.0428,-0.0427,-0.0427,-0.0427,0,0.0169,0.0186,0.0217,0.0255,0.0301,0.0341,0.0363,0.0377,0.039,0.0369,0.035,0.0227,0.0155,-0.0022,-0.0147,-0.0263,-0.0281,-0.0304,-0.0308,-0.0307,-0.0262,-0.0227,-0.0247,0,0,0,0,0,0.0162,0.0177,0.0216,0.0258,0.0308,0.0334,0.0383,0.04,0.0407,0.0391,0.0376,0.0269,0.009,0.0006,-0.0109,-0.0171,-0.0315,-0.0309,-0.0346,-0.0441,-0.0438,-0.0406,0,0,0,0,0,0,0.0154,0.0184,0.0206,0.0253,0.0282,0.0336,0.0369,0.0382,0.0376,0.037,0.0279,0.024,0.0063,0.0151,-0.0114,-0.0151,-0.0188,-0.0393,-0.0395,-0.0443,-0.044,-0.0438,-0.0404,0,0,0,0,0]}]]